FENGYUN 1C DEB, 29884

Orbit data source: Space-Track

FENGYUN 1C DEB, 29884 is space debris in SSO originally from a launch on Mon, 10 May 1999 UTC launched from the Taiyaun Space Center, China (TSC). Fengyun 1C debris stems from the Chinese weather satellite Fengyun-1C, which was intentionally destroyed by a Chinese anti-satellite missile in 2007. This event dramatically increased the amount of space debris, with thousands of trackable fragments posing hazards to satellites and human spaceflight. The Fengyun 1C debris cloud has become a focal point in discussions about space sustainability and the need for international regulations to prevent the creation of new debris.

Loading next visibility...
Identifier
29884, 1999-025GE
Orbit
SSO
Country
Flag of CNCN / PRC
Related business
Manufacturer
Unknown
Mission
Spacecraft
Bus & Motor
Unknown
Mass
Unknown
Launch date (UTC)
1999-05-10 (27 years ago)
Launch vehicle
Unknown
Launch site
Taiyaun Space Center, China (TSC)
Object type
Payload
Rocket body
Debris
Shape & HBR
Unknown shape, 0.1 m
Radar Cross Section
Medium (>0.1 m² and <1 m²)

Expand to show TLE details & history
Last TLE update: 14 hours ago

TLE from 14 hours ago
0 FENGYUN 1C DEB
1 29884U 99025GE  26168.11739830  .00001316  00000-0  42118-3 0  9991
2 29884  99.5831 228.9919 0042084 317.3805 103.7546 14.41060340 12331
Epoch: 2026-06-17T02:49Z
TLE epoch observation values (Epoch: 2026-06-17T02:49:03.213Z)
Latitude
60.25543°
Longitude
-95.74211°
Altitude
772.457 km
Speed
7.47 km/s
True Right ascension
14h 07m 36s
True Declination
60° 06' 26"
Sunlit
Object was in daylight at epoch
Visualization orbit readout
Latitude
Unknown
Longitude
Unknown
Altitude
Unknown
Speed
Unknown
Apparent Right ascension
Unknown
Apparent Declination
Unknown
Sunlit
N/A
Visualization observer readout
Local Sidereal Time
03:40:34
Azimuth
Unknown
Elevation
Unknown
Doppler factor
Unknown
Orbital elements
Apogee altitude
782.179 km
Perigee altitude
722.165 km
Semi-major axis
7,130.309 km
Eccentricity
0.00421
Inclination
99.5831°
RAAN
228.9919°
Arg. of periapsis
317.3805°
True anomaly
104.22243°
Mean anomaly
103.7546°
Eccentric anomaly
103.98857°
Mean motion
3.6048 °/min
Orbital period
99.87 mins
BSTAR
0.00042118
Loading maneuver chart data...
Computing Atmospheric mass density...

Documentation

Showing up to 5 results
|